When you browse on this site, cookies collect data to enhance your experience and personalize the content and advertising you see.
Visit our Privacy Policy to learn more. By continuing to use the site, you agree to this use of cookies and data.
  • In Deutschland
  • Länderverzeichnis
  • Für 7 Tage
  • Wassertemperatur
  • Satellitenkarten
  • Wetterkarte
  • Widgets
  • user-avatar
    Anmelden

    Stündliche Wetter Biskira

    Heute, 23 Mai, Donnerstag

    Zeit Temperatur Niederschläge Wind Luftdruck Luftfeuchtigkeit
    00:00 +28°C° 0 mm 2 m/S 753 mmHg 36%
    01:00 +27°C° 0 mm 2 m/S 753 mmHg 36%
    02:00 +27°C° 0 mm 2 m/S 753 mmHg 37%
    03:00 +26°C° 0 mm 2 m/S 753 mmHg 38%
    04:00 +26°C° 0 mm 2 m/S 753 mmHg 38%
    05:00 +26°C° 0 mm 3 m/S 753 mmHg 38%
    06:00 +26°C° 0 mm 3 m/S 753 mmHg 38%
    07:00 +27°C° 0 mm 3 m/S 754 mmHg 39%
    08:00 +28°C° 0 mm 4 m/S 754 mmHg 40%
    09:00 +28°C° 0 mm 4 m/S 754 mmHg 41%
    10:00 +29°C° 0 mm 4 m/S 754 mmHg 38%
    11:00 +30°C° 0 mm 3 m/S 753 mmHg 35%
    12:00 +31°C° 0 mm 2 m/S 753 mmHg 32%
    13:00 +31°C° 0 mm 2 m/S 753 mmHg 30%
    14:00 +32°C° 0 mm 2 m/S 752 mmHg 28%
    15:00 +32°C° 0 mm 2 m/S 752 mmHg 27%
    16:00 +32°C° 0 mm 2 m/S 752 mmHg 28%
    17:00 +32°C° 0 mm 2 m/S 751 mmHg 29%
    18:00 +32°C° 0 mm 2 m/S 751 mmHg 30%
    19:00 +32°C° 0 mm 2 m/S 752 mmHg 31%
    20:00 +31°C° 0 mm 2 m/S 752 mmHg 32%
    21:00 +31°C° 0 mm 2 m/S 752 mmHg 33%
    22:00 +31°C° 0 mm 2 m/S 752 mmHg 34%
    23:00 +30°C° 0 mm 2 m/S 752 mmHg 35%

    Morgen, 24 Mai, Freitag

    Zeit Temperatur Niederschläge Wind Luftdruck Luftfeuchtigkeit
    00:00 +30°C° 0 mm 2 m/S 752 mmHg 35%
    01:00 +29°C° 0 mm 4 m/S 751 mmHg 35%
    02:00 +29°C° 0 mm 5 m/S 751 mmHg 35%
    03:00 +28°C° 0 mm 6 m/S 751 mmHg 35%
    04:00 +28°C° 0.1 mm 6 m/S 751 mmHg 36%
    05:00 +27°C° 0.1 mm 6 m/S 751 mmHg 38%
    06:00 +27°C° 0.1 mm 7 m/S 751 mmHg 39%
    07:00 +27°C° 0.1 mm 7 m/S 751 mmHg 38%
    08:00 +28°C° 0.1 mm 7 m/S 751 mmHg 36%
    09:00 +29°C° 0.1 mm 7 m/S 751 mmHg 34%
    10:00 +30°C° 0.1 mm 7 m/S 750 mmHg 32%
    11:00 +33°C° 0.1 mm 7 m/S 750 mmHg 29%
    12:00 +34°C° 0.1 mm 7 m/S 749 mmHg 27%
    13:00 +34°C° 0 mm 7 m/S 748 mmHg 25%
    14:00 +35°C° 0 mm 8 m/S 747 mmHg 24%
    15:00 +37°C° 0 mm 8 m/S 747 mmHg 22%
    16:00 +34°C° 1.5 mm 8 m/S 746 mmHg 28%
    17:00 +32°C° 1.5 mm 8 m/S 746 mmHg 34%
    18:00 +31°C° 1.5 mm 8 m/S 745 mmHg 40%
    19:00 +29°C° 1 mm 7 m/S 746 mmHg 41%
    20:00 +29°C° 1 mm 7 m/S 746 mmHg 43%
    21:00 +29°C° 1 mm 6 m/S 747 mmHg 45%
    22:00 +28°C° 0.5 mm 6 m/S 747 mmHg 47%
    23:00 +28°C° 0.5 mm 6 m/S 746 mmHg 49%

    übermorgen, 25 Mai, Samstag

    Zeit Temperatur Niederschläge Wind Luftdruck Luftfeuchtigkeit
    00:00 +27°C° 0.5 mm 6 m/S 746 mmHg 51%
    01:00 +27°C° 0.7 mm 4 m/S 746 mmHg 54%
    02:00 +26°C° 0.7 mm 3 m/S 746 mmHg 58%
    03:00 +26°C° 0.7 mm 2 m/S 746 mmHg 61%
    04:00 +26°C° 0.1 mm 2 m/S 746 mmHg 60%
    05:00 +26°C° 0.1 mm 2 m/S 746 mmHg 58%
    06:00 +26°C° 0.1 mm 2 m/S 746 mmHg 56%
    07:00 +27°C° 0 mm 2 m/S 746 mmHg 53%
    08:00 +27°C° 0 mm 1 m/S 746 mmHg 51%
    09:00 +26°C° 0 mm 0 m/S 746 mmHg 48%
    10:00 +29°C° 0.1 mm 1 m/S 746 mmHg 46%
    11:00 +29°C° 0.1 mm 2 m/S 746 mmHg 44%
    12:00 +30°C° 0.1 mm 2 m/S 746 mmHg 42%
    13:00 +30°C° 0.1 mm 3 m/S 746 mmHg 41%
    14:00 +30°C° 0.1 mm 4 m/S 745 mmHg 39%
    15:00 +30°C° 0.1 mm 5 m/S 745 mmHg 38%
    16:00 +30°C° 0 mm 6 m/S 745 mmHg 38%
    17:00 +29°C° 0 mm 7 m/S 746 mmHg 37%
    18:00 +28°C° 0 mm 9 m/S 746 mmHg 36%
    19:00 +27°C° 0 mm 8 m/S 746 mmHg 39%
    20:00 +27°C° 0 mm 7 m/S 747 mmHg 42%
    21:00 +26°C° 0 mm 7 m/S 748 mmHg 45%
    22:00 +24°C° 0 mm 7 m/S 747 mmHg 46%
    23:00 +23°C° 0 mm 7 m/S 747 mmHg 48%

    26 Mai, Sonntag

    Zeit Temperatur Niederschläge Wind Luftdruck Luftfeuchtigkeit
    00:00 +22°C° 0 mm 7 m/S 747 mmHg 50%
    01:00 +22°C° 0 mm 7 m/S 747 mmHg 50%
    02:00 +21°C° 0 mm 6 m/S 747 mmHg 50%
    03:00 +21°C° 0 mm 6 m/S 747 mmHg 50%
    04:00 +21°C° 0 mm 6 m/S 747 mmHg 50%
    05:00 +21°C° 0 mm 6 m/S 747 mmHg 50%
    06:00 +21°C° 0 mm 6 m/S 748 mmHg 49%
    07:00 +22°C° 0 mm 6 m/S 748 mmHg 45%
    08:00 +23°C° 0 mm 5 m/S 748 mmHg 41%
    09:00 +26°C° 0 mm 5 m/S 748 mmHg 38%
    10:00 +27°C° 0 mm 5 m/S 748 mmHg 35%
    11:00 +28°C° 0 mm 6 m/S 748 mmHg 33%
    12:00 +28°C° 0 mm 6 m/S 748 mmHg 30%
    13:00 +29°C° 0 mm 6 m/S 748 mmHg 29%
    14:00 +29°C° 0 mm 7 m/S 748 mmHg 29%
    15:00 +29°C° 0 mm 8 m/S 748 mmHg 28%
    16:00 +29°C° 0 mm 7 m/S 748 mmHg 30%
    17:00 +28°C° 0 mm 7 m/S 748 mmHg 31%
    18:00 +28°C° 0 mm 7 m/S 748 mmHg 32%
    19:00 +27°C° 0 mm 7 m/S 749 mmHg 34%
    20:00 +26°C° 0 mm 6 m/S 749 mmHg 36%
    21:00 +25°C° 0 mm 5 m/S 750 mmHg 38%
    22:00 +23°C° 0 mm 6 m/S 750 mmHg 40%
    23:00 +23°C° 0 mm 6 m/S 750 mmHg 42%

    27 Mai, Montag

    Zeit Temperatur Niederschläge Wind Luftdruck Luftfeuchtigkeit
    00:00 +22°C° 0 mm 6 m/S 750 mmHg 44%
    01:00 +22°C° 0 mm 6 m/S 750 mmHg 47%
    02:00 +21°C° 0 mm 6 m/S 750 mmHg 49%
    03:00 +21°C° 0 mm 6 m/S 750 mmHg 51%
    04:00 +21°C° 0 mm 6 m/S 750 mmHg 51%
    05:00 +21°C° 0 mm 6 m/S 750 mmHg 50%
    06:00 +21°C° 0 mm 5 m/S 750 mmHg 49%
    07:00 +22°C° 0 mm 5 m/S 750 mmHg 45%
    08:00 +25°C° 0 mm 4 m/S 751 mmHg 40%
    09:00 +26°C° 0 mm 3 m/S 751 mmHg 35%
    10:00 +27°C° 0 mm 2 m/S 751 mmHg 33%
    11:00 +28°C° 0 mm 2 m/S 751 mmHg 32%
    12:00 +29°C° 0 mm 1 m/S 750 mmHg 30%
    13:00 +29°C° 0 mm 2 m/S 750 mmHg 29%
    14:00 +30°C° 0 mm 2 m/S 750 mmHg 28%
    15:00 +30°C° 0 mm 2 m/S 750 mmHg 27%
    16:00 +30°C° 0 mm 2 m/S 750 mmHg 27%
    17:00 +30°C° 0 mm 3 m/S 750 mmHg 27%
    18:00 +30°C° 0 mm 3 m/S 750 mmHg 27%
    19:00 +30°C° 0 mm 2 m/S 750 mmHg 29%
    20:00 +29°C° 0 mm 2 m/S 751 mmHg 31%
    21:00 +29°C° 0 mm 2 m/S 751 mmHg 32%
    22:00 +28°C° 0 mm 2 m/S 751 mmHg 33%
    23:00 +28°C° 0 mm 2 m/S 751 mmHg 34%

    28 Mai, Dienstag

    Zeit Temperatur Niederschläge Wind Luftdruck Luftfeuchtigkeit
    00:00 +27°C° 0 mm 2 m/S 751 mmHg 34%
    01:00 +26°C° 0 mm 2 m/S 751 mmHg 35%
    02:00 +26°C° 0 mm 1 m/S 751 mmHg 35%
    03:00 +25°C° 0 mm 1 m/S 750 mmHg 35%
    04:00 +26°C° 0 mm 2 m/S 750 mmHg 34%
    05:00 +26°C° 0 mm 2 m/S 751 mmHg 33%
    06:00 +26°C° 0 mm 2 m/S 751 mmHg 32%
    07:00 +27°C° 0 mm 3 m/S 751 mmHg 30%
    08:00 +28°C° 0 mm 4 m/S 751 mmHg 28%
    09:00 +29°C° 0 mm 5 m/S 751 mmHg 27%
    10:00 +30°C° 0 mm 5 m/S 751 mmHg 26%
    11:00 +32°C° 0 mm 4 m/S 750 mmHg 24%
    12:00 +33°C° 0 mm 4 m/S 750 mmHg 23%
    13:00 +33°C° 0 mm 4 m/S 750 mmHg 22%
    14:00 +34°C° 0 mm 4 m/S 749 mmHg 20%
    15:00 +35°C° 0 mm 3 m/S 749 mmHg 19%
    16:00 +35°C° 0 mm 4 m/S 749 mmHg 19%
    17:00 +35°C° 0 mm 5 m/S 749 mmHg 19%
    18:00 +35°C° 0 mm 6 m/S 748 mmHg 19%
    19:00 +34°C° 0 mm 6 m/S 749 mmHg 20%
    20:00 +33°C° 0 mm 7 m/S 749 mmHg 22%
    21:00 +32°C° 0 mm 7 m/S 750 mmHg 23%
    22:00 +32°C° 0 mm 6 m/S 750 mmHg 25%
    23:00 +30°C° 0 mm 6 m/S 749 mmHg 26%
    Mehr zeigen